This is the latest recevied weather packets stored in our database for station/object Aulendorf. If no packets are shown the sender has not sent any weather packets the latest 10 day(s).
| Time | Temp. | Humidity | Pressure | Rain* | Wind** | Luminosity | Snow |
|---|---|---|---|---|---|---|---|
| 1777575735 | 11.11° C | 31% | 1023.5 hPa | 0 mm | - | - | - |
| 1777573930 | 12.22° C | 29% | 1023.2 hPa | 0 mm | - | - | - |
| 1777572132 | 12.78° C | 26% | 1023 hPa | 0 mm | - | - | - |
| 1777570330 | 13.33° C | 26% | 1022.8 hPa | 0 mm | - | - | - |
| 1777568531 | 14.44° C | 22% | 1022.7 hPa | 0 mm | - | - | - |
| 1777566730 | 15° C | 21% | 1022.8 hPa | 0 mm | - | - | - |
| 1777564930 | 15.56° C | 23% | 1022.6 hPa | 0 mm | - | - | - |
| 1777563132 | 15.56° C | 23% | 1022.5 hPa | 0 mm | - | - | - |
| 1777559530 | 16.11° C | 21% | 1022.6 hPa | 0 mm | - | - | - |
| 1777557730 | 15.56° C | 23% | 1022.7 hPa | 0 mm | - | - | - |
| 1777555931 | 16.11° C | 28% | 1022.7 hPa | 0 mm | - | - | - |
| 1777554130 | 15.56° C | 28% | 1022.6 hPa | 0 mm | - | - | - |
| 1777552332 | 15.56° C | 31% | 1022.8 hPa | 0 mm | - | - | - |
| 1777550530 | 15.56° C | 33% | 1022.7 hPa | 0 mm | - | - | - |
| 1777548730 | 14.44° C | 34% | 1022.8 hPa | 0 mm | - | - | - |
| 1777546931 | 14.44° C | 36% | 1022.9 hPa | 0 mm | - | - | - |
| 1777545130 | 13.33° C | 37% | 1023.2 hPa | 0 mm | - | - | - |
| 1777543330 | 12.78° C | 37% | 1023.3 hPa | 0 mm | - | - | - |
| 1777541531 | 12.22° C | 39% | 1023.5 hPa | 0 mm | - | - | - |
| 1777539731 | 11.11° C | 41% | 1023.5 hPa | 0 mm | - | - | - |
| 1777537942 | 10.56° C | 42% | 1023.5 hPa | 0 mm | - | - | - |
| 1777536137 | 9.44° C | 44% | 1023.5 hPa | 0 mm | - | - | - |
| 1777534332 | 8.33° C | 44% | 1023.3 hPa | 0 mm | - | - | - |
| 1777532532 | 7.78° C | 46% | 1023.2 hPa | 0 mm | - | - | - |
| 1777530736 | 6.67° C | 48% | 1023.1 hPa | 0 mm | - | - | - |
* Rain since midnight (hover to see other rain measurements)
** Current wind speed in m/s (hover to see current wind gust speed)